FW3054 Weather Reports


time (UTC)temp
C
wind
direction
speed
KPH
gust
KPH
rain 1hr
cm
rain 24hr
cm
rain mn
cm
humidity
%
barometer
mb
20260503032521 7 0.0 0.0 0.00 0.00 0.00 65 1015.5
20260503031521 8 0.0 0.0 0.00 0.00 0.00 64 1015.3
20260503030521 8 0.0 0.0 0.00 0.00 0.00 63 1015.4
20260503025521 8 0.0 0.0 0.00 0.00 0.00 62 1015.4
20260503024520 8 0.0 0.0 0.00 0.00 0.00 62 1015.4
20260503023520 8 0.0 0.0 0.00 0.00 0.00 61 1015.3
20260503022520 9 0.0 0.0 0.00 0.00 0.00 60 1015.6
20260503021521 9 0.0 1.6 0.00 0.00 0.00 60 1015.5
20260503020521 10 0.0 0.0 0.00 0.00 0.00 57 1015.4
20260503015520 10 0.0 0.0 0.00 0.00 0.00 56 1015.1
20260503014521 10 0.0 4.8 0.00 0.00 0.00 53 1014.9
20260503013520 10 23 1.6 4.8 0.00 0.00 0.00 52 1014.8
20260503012521 10 0.0 4.8 0.00 0.00 0.00 53 1014.8
20260503011520 10 0 1.6 6.4 0.00 0.00 0.00 51 1014.6
20260503010521 11 23 1.6 3.2 0.00 0.00 0.00 51 1014.4
20260503005520 11 0.0 4.8 0.00 0.00 0.00 52 1014.2
20260503004520 11 23 1.6 4.8 0.00 0.00 0.00 51 1014.3
20260503003520 11 0.0 1.6 0.00 0.00 0.00 50 1014.2
20260503002520 11 0.0 4.8 0.00 0.00 0.00 52 1014.0
20260503001520 12 0.0 3.2 0.00 0.00 0.00 47 1013.9
20260503000610 12 45 1.6 4.8 0.00 0.00 0.00 45 1013.9
20260502235545 12 23 1.6 4.8 0.00 0.00 0.00 44 1013.6
20260502234522 12 23 3.2 9.7 0.00 0.00 0.00 43 1013.4
20260502233522 13 23 1.6 11.3 0.00 0.00 0.00 41 1013.5
20260502232522 13 23 1.6 4.8 0.00 0.00 0.00 41 1013.4
20260502231522 13 23 1.6 6.4 0.00 0.00 0.00 40 1013.3
20260502230612 13 0 3.2 11.3 0.00 0.00 0.00 39 1013.2
20260502225522 13 23 1.6 8.0 0.00 0.00 0.00 39 1013.3
20260502224547 13 23 1.6 8.0 0.00 0.00 0.00 42 1013.2
20260502223522 13 23 1.6 3.2 0.00 0.00 0.00 42 1013.2
20260502222522 13 23 1.6 4.8 0.00 0.00 0.00 42 1013.1
20260502221548 13 23 3.2 9.7 0.00 0.00 0.00 42 1013.0
20260502220522 13 23 1.6 6.4 0.00 0.00 0.00 41 1012.9
20260502215522 13 23 3.2 12.9 0.00 0.00 0.00 40 1012.9
20260502214547 13 23 3.2 6.4 0.00 0.00 0.00 41 1012.6
20260502213522 13 23 3.2 8.0 0.00 0.00 0.00 40 1012.6
20260502212522 14 23 3.2 6.4 0.00 0.00 0.00 39 1012.6
20260502211547 14 23 3.2 8.0 0.00 0.00 0.00 39 1012.3
20260502210612 15 23 3.2 6.4 0.00 0.00 0.00 38 1012.4
20260502205522 15 23 3.2 6.4 0.00 0.00 0.00 37 1012.4
20260502204522 16 23 4.8 11.3 0.00 0.00 0.00 36 1012.6
20260502203522 16 23 3.2 9.7 0.00 0.00 0.00 37 1012.7
20260502202522 15 23 4.8 9.7 0.00 0.00 0.00 37 1012.4
20260502201522 15 23 4.8 11.3 0.00 0.00 0.00 39 1012.3
20260502200547 15 23 4.8 11.3 0.00 0.00 0.00 38 1012.3
20260502195547 15 23 3.2 9.7 0.00 0.00 0.00 37 1012.5
20260502194522 16 23 3.2 8.0 0.00 0.00 0.00 36 1012.7
20260502193522 16 23 4.8 12.9 0.00 0.00 0.00 36 1012.9
20260502192547 16 23 4.8 9.7 0.00 0.00 0.00 36 1012.7
20260502191522 16 23 4.8 11.3 0.00 0.00 0.00 36 1012.8
20260502190522 16 23 4.8 12.9 0.00 0.00 0.00 35 1012.9
20260502185547 15 45 4.8 11.3 0.00 0.00 0.00 37 1013.1
20260502184522 15 23 3.2 8.0 0.00 0.00 0.00 35 1013.1
20260502183522 15 23 6.4 17.7 0.00 0.00 0.00 35 1013.1
20260502182522 15 23 4.8 11.3 0.00 0.00 0.00 38 1013.1
20260502181522 15 23 4.8 11.3 0.00 0.00 0.00 36 1013.1
20260502180522 14 45 4.8 11.3 0.00 0.00 0.00 37 1013.1
20260502163521 15 23 3.2 9.7 0.00 0.00 0.00 38 1014.3
20260502162547 15 23 3.2 6.4 0.00 0.00 0.00 39 1014.5
20260502161521 15 23 1.6 8.0 0.00 0.00 0.00 42 1014.4
20260502160521 13 23 1.6 6.4 0.00 0.00 0.00 46 1014.3
20260502151522 11 0.0 4.8 0.00 0.00 0.00 55 1014.3
20260502150521 11 0.0 1.6 0.00 0.00 0.00 57 1014.4
20260502130521 10 0.0 1.6 0.00 0.00 0.00 69 1014.0
20260502123521 10 0.0 3.2 0.00 0.00 0.00 72 1014.0
20260502122521 10 0.0 3.2 0.00 0.00 0.00 72 1014.0
20260502121521 10 0.0 3.2 0.00 0.00 0.00 73 1013.9
20260502120521 10 0.0 3.2 0.00 0.00 0.00 73 1014.3
20260502115612 10 0.0 1.6 0.00 0.00 0.00 74 1013.9
20260502114546 10 0.0 3.2 0.00 0.00 0.00 74 1013.7
20260502113521 10 0.0 0.0 0.00 0.00 0.00 75 1013.7
20260502112521 10 0.0 1.6 0.00 0.00 0.00 74 1013.5
20260502111521 10 0.0 3.2 0.00 0.00 0.00 74 1013.3
20260502110521 10 23 1.6 3.2 0.00 0.00 0.00 74 1013.4
20260502105521 10 0.0 3.2 0.00 0.00 0.00 73 1013.6
20260502104521 10 0.0 1.6 0.00 0.00 0.00 73 1013.4
20260502103521 10 0.0 0.0 0.00 0.00 0.00 74 1013.2
20260502102521 10 0.0 1.6 0.00 0.00 0.00 73 1013.2
20260502101521 10 0 1.6 4.8 0.00 0.00 0.00 73 1013.2
20260502100521 10 0.0 1.6 0.00 0.00 0.00 73 1013.2
20260502091521 11 0.0 3.2 0.00 0.00 0.00 73 1013.3
20260502090521 11 0.0 1.6 0.00 0.00 0.00 73 1013.4
20260502071520 12 0.0 3.2 0.00 0.00 0.00 70 1013.8
20260502070520 12 0.0 1.6 0.00 0.00 0.00 72 1013.9
20260502065521 12 0.0 1.6 0.00 0.00 0.00 70 1013.8
20260502064520 12 0 1.6 4.8 0.00 0.00 0.00 70 1013.8
20260502063521 12 0.0 4.8 0.00 0.00 0.00 70 1013.9
20260502062521 12 23 1.6 4.8 0.00 0.00 0.00 70 1013.8
20260502061520 12 0 1.6 4.8 0.00 0.00 0.00 70 1013.8
20260502060521 12 0 1.6 8.0 0.00 0.00 0.00 70 1014.2
20260502055521 12 0.0 1.6 0.00 0.00 0.00 70 1014.3
20260502054520 12 0.0 4.8 0.00 0.00 0.00 69 1014.2
20260502053520 12 0.0 3.2 0.00 0.00 0.00 70 1014.3
20260502052520 12 0.0 1.6 0.00 0.00 0.00 70 1014.5
20260502051545 12 0.0 0.0 0.00 0.00 0.00 69 1014.3
20260502050520 12 0.0 1.6 0.00 0.00 0.00 68 1014.2
20260502045520 12 23 1.6 4.8 0.00 0.00 0.00 68 1014.0
20260502044520 12 0.0 4.8 0.00 0.00 0.00 69 1014.0
20260502043520 12 0.0 1.6 0.00 0.00 0.00 69 1014.0
20260502042520 12 0.0 1.6 0.00 0.00 0.00 68 1013.8
20260502041546 12 0.0 1.6 0.00 0.00 0.00 67 1014.1
20260502040520 12 0.0 0.0 0.00 0.00 0.00 65 1013.8
20260502035546 12 0.0 0.0 0.00 0.00 0.00 64 1013.7
20260502034521 12 0.0 1.6 0.00 0.00 0.00 63 1013.7
20260502033521 12 0.0 0.0 0.00 0.00 0.00 61 1013.7